WetterOnline ( https://www.wetteronline.ch )

Wetter aktuell Frankfurt am Main

Aktuelles Wetter: Offenbach (119m)

6-stündlich | Neueste Meldungen
Ortszeit Temperatur Wetter
Sa, 24.08. 20:00 27.6° C wolkenlos
Sa, 24.08. 14:00 28.0° C wolkenlos
Sa, 24.08. 8:00 14.2° C wolkenlos
Sa, 24.08. 2:00 13.9° C wolkenlos
Fr, 23.08. 20:00 26.2° C wolkenlos
Fr, 23.08. 14:00 27.1° C wolkenlos
Fr, 23.08. 8:00 13.2° C wolkenlos
Fr, 23.08. 2:00 13.1° C wolkenlos
Ortszeit Temperatur Wetter
So, 25.08. 1:00 20.3° C leicht bewölkt
So, 25.08. 0:50 20.3° C leicht bewölkt
So, 25.08. 0:40 20.3° C leicht bewölkt
So, 25.08. 0:30 20.5° C wolkenlos
So, 25.08. 0:20 20.5° C wolkenlos
So, 25.08. 0:10 20.7° C wolkenlos
So, 25.08. 0:00 21.0° C fast wolkenlos
Sa, 24.08. 23:30 22.0° C bewölkt
Sa, 24.08. 23:00 22.2° C bewölkt
Sa, 24.08. 22:30 22.8° C bewölkt
Sa, 24.08. 22:00 22.9° C wolkig
Ortszeit Relative Feuchte Sichtweite
Sa, 24.08. 20:00 45% 55 km
Sa, 24.08. 14:00 34% 45 km
Sa, 24.08. 8:00 81% 40 km
Sa, 24.08. 2:00 88% 30 km
Fr, 23.08. 20:00 36% 50 km
Fr, 23.08. 14:00 31% 65 km
Fr, 23.08. 8:00 85% 27 km
Fr, 23.08. 2:00 89% 30 km
Ortszeit Relative Feuchte Sichtweite
So, 25.08. 1:00 76% 30 km
So, 25.08. 0:50 76% -
So, 25.08. 0:40 76% -
So, 25.08. 0:30 75% 30 km
So, 25.08. 0:20 75% -
So, 25.08. 0:10 75% -
So, 25.08. 0:00 74% 35 km
Sa, 24.08. 23:30 71% 35 km
Sa, 24.08. 23:00 71% 30 km
Sa, 24.08. 22:30 66% 26 km
Sa, 24.08. 22:00 65% 30 km
Ortszeit Niederschlagsmenge Niederschlagsart
Sa, 24.08. 20:00 0.0 l/m2 in 12 Std. -
Sa, 24.08. 14:00 0.0 l/m2 in 6 Std. -
Sa, 24.08. 8:00 0.0 l/m2 in 12 Std. -
Sa, 24.08. 2:00 0.0 l/m2 in 6 Std. -
Fr, 23.08. 20:00 0.0 l/m2 in 12 Std. -
Fr, 23.08. 14:00 0.0 l/m2 in 6 Std. -
Fr, 23.08. 8:00 0.0 l/m2 in 12 Std. -
Fr, 23.08. 2:00 0.0 l/m2 in 6 Std. -
Ortszeit Niederschlagsmenge Niederschlagsart
So, 25.08. 1:00 0.0 l/m2 in 1 Std. -
So, 25.08. 0:50 keine Meldung -
So, 25.08. 0:40 keine Meldung -
So, 25.08. 0:30 0.0 l/m2 in 1 Std. -
So, 25.08. 0:20 keine Meldung -
So, 25.08. 0:10 keine Meldung -
So, 25.08. 0:00 0.0 l/m2 in 1 Std. -
Sa, 24.08. 23:30 0.0 l/m2 in 1 Std. -
Sa, 24.08. 23:00 0.0 l/m2 in 1 Std. -
Sa, 24.08. 22:30 0.0 l/m2 in 1 Std. -
Sa, 24.08. 22:00 0.0 l/m2 in 1 Std. -
Ortszeit Stärke Spitze Richtung
km/h Bft. km/h Grad Sektor
Sa, 24.08. 20:00 6 1 19 60° NO
Sa, 24.08. 14:00 6 1 19 200° S
Sa, 24.08. 8:00 0 0 7 - -
Sa, 24.08. 2:00 2 1 9 70° O
Fr, 23.08. 20:00 7 2 25 50° NO
Fr, 23.08. 14:00 9 2 28 80° O
Fr, 23.08. 8:00 4 1 7 40° NO
Fr, 23.08. 2:00 4 1 11 60° NO
Ortszeit Stärke Spitze Richtung
km/h Bft. km/h Grad Sektor
So, 25.08. 1:00 4 1 7 20° N
So, 25.08. 0:50 4 1 - 20° N
So, 25.08. 0:40 4 1 - 20° N
So, 25.08. 0:30 4 1 7 360° N
So, 25.08. 0:20 4 1 - 360° N
So, 25.08. 0:10 2 1 - 10° N
So, 25.08. 0:00 4 1 7 10° N
Sa, 24.08. 23:30 4 1 7 20° N
Sa, 24.08. 23:00 4 1 7 360° N
Sa, 24.08. 22:30 4 1 7 360° N
Sa, 24.08. 22:00 4 1 7 10° N
Ortszeit Untergrenze Bedeckung Gattung
total tief tief mittel hoch
Sa, 24.08. 20:00 - 0/8 0/8 - - -
Sa, 24.08. 14:00 - 0/8 0/8 - - -
Sa, 24.08. 8:00 - 0/8 0/8 - - -
Sa, 24.08. 2:00 - 0/8 0/8 - - -
Fr, 23.08. 20:00 - 0/8 0/8 - - -
Fr, 23.08. 14:00 - 0/8 0/8 - - -
Fr, 23.08. 8:00 - 0/8 0/8 - - -
Fr, 23.08. 2:00 - 0/8 0/8 - - -
Ortszeit Bedeckungsgrad in Achtel und Wolkenuntergrenze
So, 25.08. 1:00 1(1500m) 4(2100m)
So, 25.08. 0:50 1(1500m) 4(2100m)
So, 25.08. 0:40 2(2100m)
So, 25.08. 0:30 keine Wolken
So, 25.08. 0:20 keine Wolken
So, 25.08. 0:10 keine Wolken
So, 25.08. 0:00 1(1500m)
Sa, 24.08. 23:30 7(1800m) 6(2100m)
Sa, 24.08. 23:00 7(1800m)
Sa, 24.08. 22:30 7(1800m)
Sa, 24.08. 22:00 6(1800m)
Ortszeit Luftdruck NN (hPa) Tendenz (hPa in 3 Std.)
Sa, 24.08. 20:00 1018 - 0,7
Sa, 24.08. 14:00 1020 - 1,4
Sa, 24.08. 8:00 1022 + 0,1
Sa, 24.08. 2:00 1023 - 0,1
Fr, 23.08. 20:00 1022 - 1,0
Fr, 23.08. 14:00 1024 - 1,8
Fr, 23.08. 8:00 1026 + 0,4
Fr, 23.08. 2:00 1026 + 0,3
Ortszeit Luftdruck NN (hPa) Tendenz (hPa in 3 Std.)
So, 25.08. 1:00 1018 - 0,2
So, 25.08. 0:50 1018 keine Meldung
So, 25.08. 0:40 1018 keine Meldung
So, 25.08. 0:30 1018 - 0,3
So, 25.08. 0:20 1018 keine Meldung
So, 25.08. 0:10 1018 keine Meldung
So, 25.08. 0:00 1018 - 0,3
Sa, 24.08. 23:30 1018 - 0,1
Sa, 24.08. 23:00 1018 - 0,2
Sa, 24.08. 22:30 1018 0,0
Sa, 24.08. 22:00 1018 + 0,1
Ortszeit Schneehöhe (cm)
Sa, 24.08. 20:00 -
Sa, 24.08. 14:00 -
Sa, 24.08. 8:00 -
Sa, 24.08. 2:00 -
Fr, 23.08. 20:00 -
Fr, 23.08. 14:00 -
Fr, 23.08. 8:00 -
Fr, 23.08. 2:00 -
Ortszeit Schneehöhe (cm)
So, 25.08. 1:00 -
So, 25.08. 0:50 -
So, 25.08. 0:40 -
So, 25.08. 0:30 -
So, 25.08. 0:20 -
So, 25.08. 0:10 -
So, 25.08. 0:00 -
Sa, 24.08. 23:30 -
Sa, 24.08. 23:00 -
Sa, 24.08. 22:30 -
Sa, 24.08. 22:00 -
Link zu dieser Seite / Seite empfehlen

Das Wetter in ...